Le nostre stazioni meteo in Italia

Pubblicità
Il mio iltempo24.it
Capo Palinuro, Italia (16310): Temperatura & dewpoint: 09.11.2018 08:00:00 - 15.11.2018 08:00:00 (CET)Capo Palinuro, Italia (16310): velocità del vento: 09.11.2018 08:00:00 - 15.11.2018 08:00:00 (CET)Capo Palinuro, Italia (16310): direzione del vento: 09.11.2018 08:00:00 - 15.11.2018 08:00:00 (CET)Capo Palinuro, Italia (16310): reduced air pressure: 09.11.2018 08:00:00 - 15.11.2018 08:00:00 (CET)Capo Palinuro, Italia (16310): visibility: 09.11.2018 08:00:00 - 15.11.2018 08:00:00 (CET)Capo Palinuro, Italia (16310): ore di luce: 09.11.2018 08:00:00 - 15.11.2018 08:00:00 (CET)
Data & Tempo tt [°C] td [°C] ff [km/h] ff [kn] dd ppp [hPa] vv [km] sd [min]
15.11.2018 08:00:00 15,2 11,4 11 6 ONO 1022,1 20 60
15.11.2018 07:00:00 15,0 11,2 0 0 N 1022,1 20 30
15.11.2018 06:00:00 15,0 11,2 9 5 NNE 1022,1 20 -
15.11.2018 05:00:00 15,0 11,6 0 0 N 1022,1 20 -
15.11.2018 04:00:00 15,0 11,6 9 5 ONO 1022,2 20 -
15.11.2018 03:00:00 15,8 13,2 9 5 ONO 1023,2 20 -
15.11.2018 02:00:00 15,8 13,6 0 0 N 1023,1 20 -
15.11.2018 01:00:00 15,8 13,9 11 6 N 1023,7 20 -
15.11.2018 00:00:00 - - - - - - - -
14.11.2018 23:00:00 16,0 14,0 0 0 N 1023,1 20 -
14.11.2018 22:00:00 16,0 14,0 0 0 N 1026,7 20 -
14.11.2018 21:00:00 16,8 14,8 0 0 N 1023,4 20 -
14.11.2018 20:00:00 17,8 15,8 8 4 ONO 1023,7 20 -
14.11.2018 19:00:00 17,8 15,8 9 5 ONO 1023,7 20 -
14.11.2018 18:00:00 17,2 15,2 0 0 N 1023,9 20 -
14.11.2018 17:00:00 17,6 15,9 4 2 N 1024,0 20 -
14.11.2018 16:00:00 17,8 15,4 0 0 N 1023,9 20 60
14.11.2018 15:00:00 18,0 14,5 0 0 N 1023,9 20 60
14.11.2018 14:00:00 18,0 13,7 8 4 ONO 1024,1 20 60
14.11.2018 13:00:00 18,0 13,5 5 3 N 1024,9 20 60
14.11.2018 12:00:00 18,0 13,7 4 2 N 1025,3 20 60
14.11.2018 11:00:00 13,0 9,2 0 0 N 1025,8 20 60
14.11.2018 10:00:00 16,8 13,0 8 4 NNO 1025,5 20 60
14.11.2018 09:00:00 15,8 13,1 8 4 NO 1025,9 20 60
14.11.2018 08:00:00 15,0 13,2 8 4 NNO 1025,9 20 60
14.11.2018 07:00:00 15,2 12,5 8 4 N 1025,9 20 -
14.11.2018 06:00:00 15,0 12,5 5 3 N 1025,6 20 -
14.11.2018 05:00:00 15,0 12,5 4 2 NO 1025,6 20 -
14.11.2018 04:00:00 15,4 12,9 5 3 ONO 1026,2 20 -
14.11.2018 03:00:00 15,4 12,9 9 5 NNO 1026,3 20 -
14.11.2018 02:00:00 15,8 13,8 11 6 N 1026,3 20 -
14.11.2018 01:00:00 15,4 13,4 8 4 NO 1026,4 20 -
14.11.2018 00:00:00 16,4 14,8 9 5 NNO 1026,5 20 -
13.11.2018 23:00:00 17,0 15,4 5 3 SSO 1026,5 20 -
13.11.2018 22:00:00 17,0 15,2 9 5 NNO 1026,4 20 -
13.11.2018 21:00:00 18,0 15,4 4 2 NNO 1025,9 20 -
13.11.2018 20:00:00 18,0 15,4 11 6 NNO 1025,9 20 -
13.11.2018 19:00:00 18,0 16,3 11 6 NO 1026,0 20 -
13.11.2018 18:00:00 18,6 16,6 13 7 NNO 1025,9 20 -
13.11.2018 17:00:00 18,8 17,0 9 5 NNO 1025,9 20 -
13.11.2018 16:00:00 19,8 17,6 11 6 NNO 1025,9 20 60
13.11.2018 15:00:00 20,8 17,4 8 4 SSE 1026,9 20 60
13.11.2018 14:00:00 21,0 17,6 11 6 SSO 1026,9 20 60
13.11.2018 13:00:00 20,8 17,8 11 6 NNO 1026,9 20 60
13.11.2018 12:00:00 20,0 16,2 8 4 SSE 1026,9 20 60
13.11.2018 11:00:00 20,2 17,4 4 2 ENE 1026,9 20 60
13.11.2018 10:00:00 20,0 16,8 4 2 NE 1026,8 20 60
13.11.2018 09:00:00 19,0 16,4 5 3 ENE 1026,9 20 60
13.11.2018 08:00:00 18,4 15,8 4 2 NE 1026,6 20 60
13.11.2018 07:00:00 17,8 15,6 5 3 NE 1026,5 20 0
13.11.2018 06:00:00 18,2 16,5 5 3 NNE 1026,4 20 -
13.11.2018 05:00:00 18,0 15,6 4 2 NE 1026,4 20 -
13.11.2018 04:00:00 18,2 15,8 5 3 NNE 1026,4 20 -
13.11.2018 03:00:00 18,4 14,9 5 3 NE 1026,4 20 -
13.11.2018 02:00:00 17,8 14,7 8 4 NNE 1026,1 20 -
13.11.2018 01:00:00 18,2 14,7 8 4 NNE 1025,9 20 -
13.11.2018 00:00:00 18,6 16,2 4 2 NNE 1025,9 20 -
12.11.2018 23:00:00 19,0 17,0 8 4 NNE 1025,9 20 -
12.11.2018 22:00:00 18,8 15,9 5 3 NNE 1025,9 20 -
12.11.2018 21:00:00 18,0 15,4 5 3 N 1026,0 20 -
12.11.2018 20:00:00 18,0 15,6 5 3 ONO 1026,0 20 -
12.11.2018 19:00:00 18,4 16,2 5 3 NNO 1025,9 20 -
12.11.2018 18:00:00 19,0 17,3 8 4 NO 1025,9 20 -
12.11.2018 17:00:00 19,4 18,6 5 3 NO 1025,9 20 42
12.11.2018 16:00:00 21,0 19,3 5 3 NNE 1025,7 20 60
12.11.2018 15:00:00 21,0 18,9 4 2 ONO 1025,6 20 60
12.11.2018 14:00:00 21,0 18,4 8 4 ONO 1025,7 20 60
12.11.2018 13:00:00 21,2 17,2 8 4 ESE 1025,8 20 60
12.11.2018 12:00:00 21,0 17,0 9 5 NNE 1025,7 20 60
12.11.2018 11:00:00 21,0 17,0 5 3 ONO 1025,7 20 60
12.11.2018 10:00:00 20,0 14,6 0 0 N 1025,8 20 60
12.11.2018 09:00:00 18,8 15,3 0 0 N 1024,1 20 60
12.11.2018 08:00:00 18,4 16,0 8 4 NO 1023,6 20 48
12.11.2018 07:00:00 18,0 14,1 5 3 ONO 1023,1 20 0
12.11.2018 06:00:00 18,0 14,5 5 3 ONO 1022,8 20 -
12.11.2018 05:00:00 17,8 13,9 5 3 O 1022,9 20 -
12.11.2018 04:00:00 18,0 15,1 8 4 NO 1022,8 20 -
12.11.2018 03:00:00 18,2 15,3 5 3 ONO 1022,5 20 -
12.11.2018 02:00:00 18,4 15,5 8 4 ONO 1022,4 20 -
12.11.2018 01:00:00 18,8 14,9 9 5 NO 1022,3 20 -
12.11.2018 00:00:00 18,8 14,7 5 3 ONO 1022,0 20 -
11.11.2018 23:00:00 18,8 15,3 8 4 O 1021,8 20 -
11.11.2018 22:00:00 18,8 14,5 8 4 NO 1021,7 20 -
11.11.2018 21:00:00 19,0 15,7 5 3 NO 1021,1 20 -
11.11.2018 20:00:00 18,8 14,9 8 4 ONO 1020,8 20 -
11.11.2018 19:00:00 18,8 15,7 9 5 ONO 1020,5 20 -
11.11.2018 18:00:00 18,8 16,8 8 4 NO 1020,2 20 -
11.11.2018 17:00:00 18,8 16,6 8 4 NO 1019,9 20 36
11.11.2018 16:00:00 19,8 16,4 5 3 ONO 1019,8 20 60
11.11.2018 15:00:00 21,8 17,2 8 4 O 1019,5 20 60
11.11.2018 14:00:00 21,8 16,1 9 5 O 1019,5 20 60
11.11.2018 13:00:00 22,0 15,6 8 4 O 1019,3 20 60
11.11.2018 12:00:00 22,0 16,1 11 6 SO 1019,3 20 60
11.11.2018 11:00:00 21,0 13,0 9 5 SO 1018,7 20 60
11.11.2018 10:00:00 20,0 13,0 16 9 NO 1018,4 20 60
11.11.2018 09:00:00 18,6 13,7 11 6 OSO 1018,2 20 60
11.11.2018 08:00:00 18,0 14,1 15 8 NO 1017,9 20 60
11.11.2018 07:00:00 17,6 13,7 15 8 NO 1017,3 20 24
11.11.2018 06:00:00 18,2 13,9 9 5 NNE 1017,0 20 -
11.11.2018 05:00:00 18,0 13,9 11 6 NNE 1016,7 20 -
11.11.2018 04:00:00 18,0 13,9 11 6 ESE 1016,7 20 -
11.11.2018 03:00:00 18,0 13,7 15 8 SSE 1016,6 20 -
11.11.2018 02:00:00 18,2 12,7 15 8 SSE 1016,4 20 -
11.11.2018 01:00:00 18,2 12,7 13 7 SO 1016,3 20 -
11.11.2018 00:00:00 17,8 13,3 15 8 SSE 1016,3 20 -
10.11.2018 23:00:00 18,0 13,5 16 9 SSE 1017,1 20 -
10.11.2018 22:00:00 18,0 13,3 18 10 SE 1015,8 20 -
10.11.2018 21:00:00 18,4 12,8 11 6 OSO 1015,5 20 -
10.11.2018 20:00:00 18,2 13,1 9 5 SSO 1015,6 20 -
10.11.2018 19:00:00 18,8 14,7 11 6 SSO 1015,4 20 -
10.11.2018 18:00:00 18,2 15,5 13 7 S 1015,2 20 -
10.11.2018 17:00:00 18,8 16,0 13 7 S 1015,1 20 -
10.11.2018 16:00:00 19,8 17,2 16 9 SO 1015,3 20 60
10.11.2018 15:00:00 21,0 17,0 5 3 SSO 1015,5 20 60
10.11.2018 14:00:00 21,0 16,8 8 4 SSO 1015,6 20 60
10.11.2018 13:00:00 21,0 16,6 11 6 SSO 1015,6 20 60
10.11.2018 12:00:00 21,0 16,4 13 7 OSO 1015,5 20 60
10.11.2018 11:00:00 20,2 16,0 15 8 OSO 1016,3 20 60
10.11.2018 10:00:00 20,2 16,0 8 4 S 1016,3 20 60
10.11.2018 09:00:00 20,0 15,7 8 4 NO 1016,7 20 60
10.11.2018 08:00:00 19,0 15,9 11 6 NNO 1016,7 20 60
10.11.2018 07:00:00 18,0 16,0 8 4 N 1016,8 20 -
10.11.2018 06:00:00 18,4 16,4 5 3 S 1016,8 20 -
10.11.2018 05:00:00 18,6 16,0 5 3 SSO 1017,3 20 -
10.11.2018 04:00:00 18,6 15,8 5 3 O 1017,3 20 -
10.11.2018 03:00:00 18,6 15,8 5 3 OSO 1017,3 20 -
10.11.2018 02:00:00 17,8 14,3 4 2 ONO 1018,0 20 -
10.11.2018 01:00:00 17,8 14,3 8 4 SO 1018,0 20 -
10.11.2018 00:00:00 17,8 14,3 8 4 O 1018,0 20 -
09.11.2018 23:00:00 17,8 15,3 5 3 NNO 1018,0 20 -
09.11.2018 22:00:00 18,0 15,2 9 5 OSO 1018,0 20 -
09.11.2018 21:00:00 18,0 15,2 8 4 SO 1017,9 20 -
09.11.2018 20:00:00 17,8 15,2 11 6 OSO 1018,0 20 -
09.11.2018 19:00:00 - - - - - - - -
09.11.2018 18:00:00 - - - - - - - -
09.11.2018 17:00:00 - - - - - - - -
09.11.2018 16:00:00 - - - - - - - -
09.11.2018 15:00:00 20,6 17,0 15 8 SSO 1018,3 20 60
09.11.2018 14:00:00 20,6 16,8 16 9 SSO 1018,8 20 60
09.11.2018 13:00:00 20,4 16,8 13 7 SE 1019,3 20 60
09.11.2018 12:00:00 20,6 16,8 11 6 SSE 1019,6 20 60
09.11.2018 11:00:00 20,6 16,6 13 7 ESE 1019,6 20 60
09.11.2018 10:00:00 20,0 16,4 9 5 N 1019,7 20 60
09.11.2018 09:00:00 19,0 16,0 9 5 NO 1020,8 20 60
09.11.2018 08:00:00 18,0 15,4 9 5 ONO 1020,9 20 60

tt = Temperatura
td = dewpoint
ff = velocità del vento
dd = direzione del vento
ppp = reduced air pressure
vv = visibility
sd = ore di luce

Stazioni seguenti

WeatherPro
AMSI
MeteoEarth